sat.trackr.live / text

‹ back to catalog

STARLINK-34265

NORAD 64192 · 2025-113Y

PAYLOAD ACTIVE UNKNOWN

§ Identity

Operator
Country
US
Launch date
2025-05-28
Launch site
AFETR
Launch vehicle
Mass (kg)
RCS (m²)

Purposes: comms

External: N2YO · Heavens-Above · Gunter

§ Orbital elements

Epoch: 2026-09-20T07:23:22.763904Z

Period
93.85 min
Inclination
53.1582°
Eccentricity
0.0001379
Mean motion
15.34402572 rev/d
Perigee alt
461.8 km
Apogee alt
463.6 km
Semi-major
6,840.8 km
B*
3.0076e-4
RAAN
266.3257°
Arg perigee
73.4494°
Mean anomaly
286.6660°
Rev number
7,483

§ Raw data

STARLINK-342651 64192U 25113Y   26263.30790236  .00009800  00000+0  30076-3 0  99982 64192  53.1582 266.3257 0001379  73.4494 286.6660 15.34402572 74839

JSON: /api/v1/satellites/64192 · /tle

For live sub-satellite position, see the globe view (requires WebGL).

§ Visibility from observer

Set your observer location to see the next 7 days of passes ≥ 10°. The values pass through the URL so the page stays shareable.

No JS? Fill the form by hand. The geolocation button needs JavaScript.